Weather History for Waukegan, IL

Change the Weather History Date:

Tuesday, November 5, 2013

  Actual Average Record
Temperature  
Mean Temperature 53 °F -  
Max Temperature 56 °F 52 °F 70 °F (2008)
Min Temperature 49 °F 36 °F 27 °F (2010)
Degree Days  
Heating Degree Days 12 21  
Month to date heating degree days 95 99  
Since 1 July heating degree days 735 705  
Cooling Degree Days 0 0  
Month to date cooling degree days 0 0  
Year to date cooling degree days 590 564  
Growing Degree Days 2 (Base 50)    
Moisture  
Dew Point 47 °F    
Average Humidity 84    
Maximum Humidity 96    
Minimum Humidity 71    
Precipitation  
Precipitation 0.01 in 0.12 in 0.54 in (2005)
Month to date precipitation 0.08 0.55  
Year to date precipitation 26.32 31.38  
Sea Level Pressure  
Sea Level Pressure 30.13 in    
Wind  
Wind Speed 10 mph (South)    
Max Wind Speed 24 mph    
Max Gust Speed 31 mph    
Visibility 8 miles    
Events Rain    
T = Trace of Precipitation, MM = Missing Value Source: NWS Daily Summary

Daily Weather History Graph

Daily Weather History Graph

Search for Another Location

Airport:

Trip Planner

Search our weather history database for the weather conditions in past years. The results will help you decide how hot, cold, wet, or windy it might be!

Date:

Astronomy

Nov. 05, 2013 Rise Set
Actual Time 6:30 AM CST 4:39 PM CST
Civil Twilight 6:00 AM CST 5:08 PM CST
Nautical Twilight 5:27 AM CST 5:42 PM CST
Astronomical Twilight 4:54 AM CST 6:15 PM CST
Moon 8:46 AM CST (11/5) 6:38 PM CST (11/5)
Length of Visible Light 11h 08m
Length of Day
10h 09m
Waxing Crescent, 7% of the Moon is Illuminated
Nov 5
Waxing Crescent
Nov 9
First Quarter
Nov 17
Full
Nov 25
Last Quarter
Dec 2
New

Hourly Weather History & Observations

Time (CST) Temp. Dew Point Humidity Pressure Visibility Wind Dir Wind Speed Gust Speed Precip Events Conditions
12:52 AM 51.1 °F 43.0 °F 74% 30.20 in 10.0 mi SSW 6.9 mph - N/A   Overcast
1:52 AM 50.0 °F 44.1 °F 80% 30.20 in 10.0 mi SSW 4.6 mph - N/A   Overcast
2:52 AM 48.9 °F 44.1 °F 83% 30.21 in 10.0 mi SSW 5.8 mph - N/A   Overcast
3:52 AM 50.0 °F 44.1 °F 80% 30.22 in 10.0 mi South 8.1 mph - N/A   Overcast
4:52 AM 50.0 °F 44.1 °F 80% 30.23 in 10.0 mi SSW 8.1 mph - N/A   Overcast
5:52 AM 50.0 °F 44.1 °F 80% 30.23 in 10.0 mi SW 4.6 mph - N/A   Overcast
6:52 AM 48.9 °F 44.1 °F 83% 30.25 in 9.0 mi South 5.8 mph - N/A   Overcast
7:52 AM 52.0 °F 45.0 °F 77% 30.25 in 10.0 mi South 5.8 mph - N/A   Overcast
8:52 AM 53.1 °F 46.0 °F 77% 30.25 in 10.0 mi South 5.8 mph - N/A   Mostly Cloudy
9:52 AM 54.0 °F 46.0 °F 75% 30.25 in 10.0 mi SW 6.9 mph - N/A   Overcast
10:52 AM 55.0 °F 46.9 °F 74% 30.24 in 10.0 mi South 6.9 mph - N/A   Mostly Cloudy
11:52 AM 53.1 °F 46.0 °F 77% 30.22 in 8.0 mi SE 6.9 mph - N/A   Overcast
12:52 PM 53.1 °F 46.9 °F 80% 30.19 in 8.0 mi SE 8.1 mph - N/A   Overcast
1:01 PM 53.6 °F 46.4 °F 77% 30.18 in 7.0 mi SE 8.1 mph - N/A   Overcast
1:52 PM 54.0 °F 48.0 °F 80% 30.17 in 6.0 mi South 9.2 mph - N/A   Haze
2:45 PM 53.6 °F 48.2 °F 82% 30.15 in 9.0 mi South 9.2 mph - 0.00 in   Overcast
2:52 PM 53.1 °F 48.9 °F 86% 30.15 in 8.0 mi South 8.1 mph - 0.00 in   Overcast
3:49 PM 51.8 °F 50.0 °F 94% 30.13 in 5.0 mi SSE 9.2 mph - 0.00 in   Overcast
3:52 PM 52.0 °F 50.0 °F 93% 30.13 in 4.0 mi SSE 10.4 mph - 0.00 in   Overcast
4:24 PM 51.8 °F 48.2 °F 88% 30.11 in 6.0 mi SSE 9.2 mph - N/A   Overcast
4:52 PM 52.0 °F 48.9 °F 89% 30.11 in 6.0 mi SSE 9.2 mph - 0.01 in Rain Light Rain
5:09 PM 51.8 °F 48.2 °F 88% 30.10 in 7.0 mi SE 6.9 mph - 0.00 in Rain Light Rain
5:52 PM 51.1 °F 48.9 °F 92% 30.10 in 6.0 mi SSE 8.1 mph - 0.00 in   Overcast
6:52 PM 51.1 °F 48.9 °F 92% 30.08 in 6.0 mi SSE 8.1 mph - N/A   Overcast
7:52 PM 51.1 °F 46.9 °F 86% 30.04 in 9.0 mi SSE 12.7 mph 20.7 mph N/A   Mostly Cloudy
8:52 PM 52.0 °F 45.0 °F 77% 30.01 in 10.0 mi SSE 13.8 mph 21.9 mph N/A   Overcast
9:52 PM 53.1 °F 45.0 °F 74% 29.98 in 10.0 mi SSE 17.3 mph 21.9 mph N/A   Overcast
10:00 PM 53.6 °F 44.6 °F 72% 29.98 in 10.0 mi South 18.4 mph 25.3 mph N/A   Overcast
10:36 PM 51.8 °F 48.2 °F 88% 29.97 in 6.0 mi South 21.9 mph 31.1 mph N/A   Overcast
10:45 PM 51.8 °F 48.2 °F 88% 29.98 in 4.0 mi South 18.4 mph 31.1 mph 0.00 in Rain Light Rain
10:52 PM 52.0 °F 48.9 °F 89% 29.97 in 5.0 mi South 19.6 mph 26.5 mph 0.00 in Rain Light Rain
11:52 PM 53.1 °F 48.9 °F 86% 29.94 in 9.0 mi South 16.1 mph 27.6 mph 0.00 in   Overcast